Regional Weather Roundup
Issued by NWS

Home | Current Version | Previous Version | Text Only | Print | Product List | Glossary Off
Versions: 1 2 3 4 5 6 7 8 9 10 11 12 13 14 15 16 17 18 19 20 21 22 23 24 25 26 27 28 29 30 31 32 33 34 35 36 37 38 39 40 41 42 43 44 45 46 47 48 49 50

000
ASUS43 KMPX 291510
RWRMN
WEATHER ROUNDUP FOR MINNESOTA
NATIONAL WEATHER SERVICE TWIN CITIES/CHANHASSEN MN
900 AM CST THU JAN 29 2015


NOTE: "FAIR" INDICATES FEW OR NO CLOUDS BELOW 12,000 FEET WITH NO
SIGNIFICANT WEATHER AND/OR OBSTRUCTIONS TO VISIBILITY. N/A MEANS
CURRENT SKY AND/OR WEATHER CONDITIONS ARE NOT AVAILABLE.

MNZ060>063-068>070-291600-
   Twin Cities Metro

CITY           SKY/WX    TMP DP  RH WIND       PRES   REMARKS
TWIN CITIES    CLOUDY    30  24  78 NW13G24   30.15R WCI  20
ST PAUL        CLOUDY    32  25  75 NW20G26   30.15R WCI  20
CRYSTAL        CLOUDY    31  24  75 NW15G23   30.14R WCI  20
BLAINE         CLOUDY    32  27  80 MISG      30.13R
LAKEVILLE      CLOUDY    28  25  86 NW18G25   30.13R WCI  16
EDEN PRAIRIE   CLOUDY    30  23  75 NW15G26   30.15R WCI  19
SOUTH ST PAUL  CLOUDY    32  26  78 NW17G24   30.13R WCI  21
LAKE ELMO      CLOUDY    32  28  86 NW15G22   30.12R WCI  22
$$
MNZ001>005-007-008-013>017-022>024-027-028-291600-
   Northwest Minnesota

CITY           SKY/WX    TMP DP  RH WIND       PRES   REMARKS
BEMIDJI        LGT SNOW  13  10  86 NW22      30.24R WCI  -6
HALLOCK        CLOUDY     7   1  78 N21G28    30.44R WCI -13
ROSEAU         PTCLDY     7   0  72 NW22G28   30.35R WCI -14
WARROAD        CLEAR      3  -2  78 NW17G23   30.33R WCI -17
THIEF RVR FALL CLOUDY     9   5  85 NW20      30.36R WCI -11
CROOKSTON      MOCLDY    10   7  85 N29       30.42R WCI -11
FOSSTON        LGT SNOW   9   7  92 NW17G24   30.33R WCI -10
DETROIT LAKES  FLURRIES  16  12  86 NW20G25   30.32R WCI  -1
MOORHEAD       CLOUDY    19  16  86 N20G30    30.39R WCI   4
PARK RAPIDS    CLOUDY    17  13  84 NW20G25   30.23R WCI   1
MAHNOMEN       FLURRIES  12   8  83 NW22      30.33R WCI  -7
$$
MNZ006-009>011-018-025>026-291600-
   North Central Minnesota

CITY           SKY/WX    TMP DP  RH WIND       PRES   REMARKS
BAUDETTE       CLOUDY     6   1  80 NW16G31   30.27R WCI -12
FLAG ISLAND    CLOUDY     3  -2  78 NW23G29   30.31R HAZE    WCI -19
INTL FALLS     LGT SNOW  14   9  80 NW18G26   30.18R WCI  -3
WASKISH        FLURRIES  12   9  85 NW14      30.26R WCI  -3
BIG FORK       FLURRIES  16  10  79 NW8G20    30.18R WCI   5
LONGVILLE      CLOUDY    19  16  86 NW14G24   30.20R WCI   6
GRAND RAPIDS   CLOUDY    19  16  86 NW20G28   30.13R WCI   4
CRANE LAKE     FLURRIES  18  14  86 NW10G20   30.14R WCI   6
ORR            CLOUDY    18  16  93 NW15G21   30.09R WCI   3
COOK           CLOUDY    19  18  93 NW10G16   30.10R WCI   8
WALKER         CLOUDY    16  12  86 NW13G20   30.22R WCI   2
$$
MNZ012-019>021-037-291600-
   Northeast Minnesota

CITY           SKY/WX    TMP DP  RH WIND       PRES   REMARKS
DULUTH         PTSUNNY   26  19  74 NW13G24   30.04R WCI  15
ELY            FLURRIES  19  16  86 NW14G21   30.04R WCI   6
HIBBING        CLOUDY    22  16  78 NW23      30.10R WCI   6
EVELETH        CLOUDY    23  19  86 NW14G23   30.09R WCI  11
DULUTH HARBOR  PTSUNNY   28  21  74 NW21      30.10R WCI  15
TWO HARBORS    CLOUDY    28  21  74 W9        30.03R WCI  20
SILVER BAY     CLOUDY    27  18  69 NW8       30.01R WCI  18
GRAND MARAIS     N/A     24  16  71 NW6G22    30.00R WCI  17
G MARAIS ARPRT FLURRIES  18  12  79 NW13G26   29.92R WCI   4
$$
MNZ029>031-032-039>041-046>048-054>057-064-291600-
   West Central Minnesota

CITY           SKY/WX    TMP DP  RH WIND       PRES   REMARKS
FERGUS FALLS   CLOUDY    18  14  86 N22G29    30.37R WCI   0
WHEATON        CLOUDY    21  18  86 NW15      30.39R WCI   8
MORRIS         CLOUDY    21  16  79 NW31G38   30.31R WCI   3
ALEXANDRIA     CLOUDY    20  14  77 NW18G31   30.26R WCI   5
ELBOW LAKE     CLOUDY    18  13  81 N22G32    30.31R WCI   1
WADENA         CLOUDY    16  12  86 NW17G23   30.26R WCI   0
GLENWOOD       CLOUDY    21  19  93 NW23      30.26R WCI   5
APPLETON       CLOUDY    27  19  74 N28G33    30.33R WCI  11
BENSON         CLOUDY    25  18  74 N21G29    30.30R WCI  10
ORTONVILLE     CLOUDY    25  19  80 N23G31    30.34R WCI  10
MADISON        CLOUDY    30  25  80 NW23G31   30.33R WCI  17
WILLMAR        PTSUNNY   25  19  80 NW24      30.27R WCI   9
$$
MNZ033>034-036-042>043-049>051-058-059-291600-
   Central Minnesota

CITY           SKY/WX    TMP DP  RH WIND       PRES   REMARKS
ST CLOUD       CLOUDY    26  20  77 NW13G29   30.19R WCI  15
SAUK CENTRE    CLOUDY    21  17  83 NW24G31   30.24R WCI   4
PAYNESVILLE    CLOUDY    22  19  87 W16G22    30.24R WCI   8
AITKIN         CLOUDY    25  18  74 NW9G20    30.15R WCI  15
PINE RIVER     CLOUDY    19  16  86 NW15G24   30.23R WCI   5
BRAINERD       CLOUDY    22  17  81 NW14G25   30.20R WCI   9
STAPLES        CLOUDY    19  16  86 NW15G21   30.24R WCI   5
LONG PRAIRIE   CLOUDY    21  18  86 NW18G31   30.24R WCI   6
LITTLE FALLS   CLOUDY    25  19  80 NW7       30.22R WCI  17
LITCHFIELD     CLOUDY    27  25  93 NW23G30   30.22R WCI  12
BUFFALO        CLOUDY    29  23  76 NW12G22   30.19R WCI  20
MAPLE LAKE     CLOUDY    29  25  82 NW10G23   30.20R WCI  20
$$
MNZ037-044-045-052-053-291600-
   East Central Minnesota

CITY           SKY/WX    TMP DP  RH WIND       PRES   REMARKS
PRINCETON      CLOUDY    30  23  74 W15G21    30.17R WCI  19
MORA           CLOUDY    28  21  74 N14G29    30.15R WCI  17
CAMBRIDGE      CLOUDY    30  21  69 NW13G21   30.13R WCI  20
RUSH CITY      CLOUDY    30  22  73 N12G22    30.13R WCI  21
MOOSE LAKE     CLOUDY    28  21  74 NW13G20   30.09R WCI  18
HINCKLEY       CLOUDY    30  23  74 NW15G22   30.12R WCI  19
CLOQUET        CLOUDY    25  19  80 NW13G24   30.08R WCI  13
MCGREGOR       CLOUDY    27  21  80 NW15G25   30.14R WCI  15
$$
MNZ071>073-080-081-089-090-097-098-291600-
   Southwest Minnesota

CITY           SKY/WX    TMP DP  RH WIND       PRES   REMARKS
MONTEVIDEO     CLOUDY    25  21  86 N24G32    30.32R WCI   9
GRANITE FALLS  CLOUDY    27  23  85 NW20      30.32R WCI  13
CANBY          CLOUDY    28  23  82 NW15G24   30.34R WCI  16
MARSHALL       CLOUDY    27  18  69 N25G32    30.31R WCI  11
REDWOOD FALLS  CLOUDY    28  21  75 NW23G32   30.27R WCI  14
OLIVIA         CLOUDY    27  21  80 NW20G28   30.26R WCI  13
PIPESTONE      CLOUDY    28  25  86 N13G23    30.28R WCI  18
WINDOM         CLOUDY    28  25  86 NW30G39   30.25R WCI  13
WORTHINGTON    CLOUDY    30  23  74 NW25G33   30.27R WCI  16
JACKSON        CLOUDY    30  27  86 NW23G38   30.23R WCI  17
TRACY          CLOUDY    28  25  86 N22G30    30.28R WCI  15
SLAYTON        CLOUDY    27  24  86 NW24G32   30.28R WCI  12
$$
MNZ065>067-074>077-082>085-091>093-291600-
   South Central Minnesota

CITY           SKY/WX    TMP DP  RH WIND       PRES   REMARKS
MANKATO        CLOUDY   N/A N/A N/A N24G30    30.18R
NEW ULM        CLOUDY    28  25  86 NW24      30.23R WCI  14
ST JAMES       CLOUDY    30  25  80 NW28G35   30.24R WCI  16
FAIRMONT       CLOUDY    30  21  69 N25G36    30.20R WCI  16
GLENCOE        CLOUDY    31  26  83 NW20      30.19R WCI  18
FARIBAULT      CLOUDY    30  27  86 NW14G22   30.15R WCI  20
OWATONNA       CLOUDY    28  27  93 NW22G29   30.14R WCI  15
WASECA         CLOUDY    30  27  86 NW20G26   30.18R WCI  18
ALBERT LEA     CLOUDY    28  27  93 NW14G24   30.13R WCI  17
$$
MNZ078>079-086>088-094>096-291600-
   Southeast Minnesota

CITY           SKY/WX    TMP DP  RH WIND       PRES   REMARKS
ROCHESTER      CLOUDY    31  28  89 NW24      30.07R FOG     WCI  17
RED WING       CLOUDY    34  25  69 N13G23    30.10R WCI  25
STANTON        CLOUDY    32  27  80 NW17G25   30.11R WCI  21
DODGE CENTER   CLOUDY    30  28  93 NW18G28   30.09R FOG     WCI  18
WINONA         CLOUDY    34  28  80 NW23      30.06R WCI  22
AUSTIN         CLOUDY    28  27  93 NW21G29   30.10R FOG     WCI  15
PRESTON        CLOUDY    32  28  84 NW15G26   30.04R WCI  22
$$
ABBREVIATIONS USED IN REMARKS
   TC - TEMPERATURES IN CELSIUS
  WCI - WIND CHILL INDEX
   HX - HEAT INDEX
  VSB - VISIBILITY
$$


USA.gov is the U.S. government's official web portal to all federal, state and local government web resources and services.